Regional Weather Roundup
Issued by NWS Cleveland, OH

Home | Current Version | Previous Version | Graphics & Text | Print | Product List | Glossary On
Versions: 1 2 3 4 5 6 7 8 9 10 11 12 13 14 15 16 17 18 19 20 21 22 23 24 25 26 27 28 29 30 31 32 33 34 35 36 37 38 39 40 41 42 43 44 45 46 47 48 49 50
000
ASUS41 KCLE 281100
RWRCLE
OHIO REGIONAL WEATHER ROUNDUP
NATIONAL WEATHER SERVICE WILMINGTON, OH
700 AM EDT SAT MAY 28 2016

NOTE: "FAIR" INDICATES FEW OR NO CLOUDS BELOW 12,000 FEET WITH NO
SIGNIFICANT WEATHER AND/OR OBSTRUCTIONS TO VISIBILITY.

OHZ001>008-015>018-024>027-034-035-043-044-281200-
   NORTHWEST OHIO

CITY           SKY/WX    TMP DP  RH WIND       PRES   REMARKS
DEFIANCE       FAIR      71  62  73 S6        30.01R
FINDLAY        FAIR      70  60  70 SE9       30.03R
TOLEDO EXPRESS FAIR      68  62  81 CALM      30.01R
TOLEDO EXEC    FAIR      68  61  78 SE6       30.03R
LIMA           FAIR      69  63  81 SE8       30.03R
$$

OHZ009>014-019>023-028>033-038-089-281200-
   NORTHEAST OHIO

CITY           SKY/WX    TMP DP  RH WIND       PRES   REMARKS
CLE-HOPKINS    MOCLDY    71  64  78 S6        30.08R
CLE-LAKEFRONT  FAIR      74  65  73 S8        30.04R
CUY CO. ARPT   MOCLDY    72  66  83 SE6       30.07
LORAIN-ELYRIA  FAIR      69  63  81 S7        30.06R
ASHTABULA      FAIR      68  65  90 S5        30.09R
AKRON-CANTON   MOCLDY    68  64  87 S5        30.09S FOG
WOOSTER        NOT AVBL
MANSFIELD      FAIR      67  64  90 S6        30.08R
YOUNGSTOWN     PTSUNNY   66  62  87 S5        30.10R
$$

OHZ042-051>053-060>062-070>072-077>081-281200-
  SOUTHWEST OHIO

CITY           SKY/WX    TMP DP  RH WIND       PRES   REMARKS
CINC-COVINGTON FAIR      67  65  93 S7        30.06
CINC-LUNKEN    FAIR      62  62 100 CALM      30.07R
HAMILTON       FAIR      70  66  87 CALM      30.06R
DAYTON         NOT AVBL
WRIGHT-PAT AFB NOT AVBL
DAYTON GENERAL FAIR      68  63  84 S7        30.06R
WILMINGTON     FAIR      68  63  84 S8        30.07R
$$

OHZ036-037-039>041-045>050-054>059-063>069-073>076-082>088-281200-
  CENTRAL AND SOUTHEAST OHIO

CITY           SKY/WX    TMP DP  RH WIND       PRES   REMARKS
COLUMBUS       MOCLDY    69  65  86 CALM      30.07R
OSU AIRPORT    FAIR      71  66  84 S7        30.07R
BOLTON FIELD   NOT AVBL
RICKENBACK AFB NOT AVBL
NEWARK         FAIR      65  63  93 CALM      30.08R
MARION         FAIR      69  64  84 S6        30.07R
LANCASTER      FAIR      69  65  86 SE7       30.09R
ZANESVILLE     FAIR      69  64  84 S3        30.10R
NEW PHILLY     MOCLDY    69  64  84 SE6       30.10R
$$




USA.gov is the U.S. government's official web portal to all federal, state and local government web resources and services.